Шаартуз

Таджикистан     37°15′49″N   68°08′09″E
темп.,
°C
ветер,
м/с
пор.,
м/с
влажн.,
%
обл.,
%
осадки,
мм/ч
давл.,
гПа
погр.,
м
27 ноября, сб
сб2723:00+9зсз1150100 0.0 102711
02:00+7зсз11535 0.0 102710
05:00+7ююв00545 0.0 102610
08:00+7св00536 0.0 102610
11:00+11в11475 0.0 1025419
14:00+13в11452 0.0 1022596
17:00+12ююз11525 0.0 102110
20:00+10зюз11570 0.0 102210
28 ноября, вс
вс2823:00+9с11606 0.0 102210
02:00+9всв1162100 0.0 102210
05:00+8в006594 0.0 102210
08:00+8всв006699 0.0 102310
11:00+12вюв0050100 0.0 1024314
14:00+14юз1144100 0.0 1021594
17:00+13юз2249100 0.0 102212
20:00+12ююз115281 0.0 102310
29 ноября, пн
пн2923:00+10всв115667 0.0 102310
02:00+9св22603 0.0 102311
05:00+8св22650 0.0 102312
08:00+9всв22650 0.0 102412
11:00+13всв22400 0.0 1023281
14:00+17всв233491 0.0 1021493
17:00+14св1144100 0.0 102011
20:00+13ююв0046100 0.0 102111
30 ноября, вт
вт3023:00+12в114796 0.0 102110
02:00+12всв224889 0.0 102110
05:00+11всв224999 0.0 102110
08:00+11всв224484 0.0 102211
11:00+15всв2231100 0.0 1023204
14:00+17всв222564 0.0 1020375
17:00+14всв113125 0.0 101911
20:00+12всв11325 0.0 102011
1 декабря, ср
ср123:00+12всв11320 0.0 102010
02:00+11всв22335 0.0 101910
05:00+10всв22365 0.0 101910
08:00+10всв22360 0.0 102010
11:00+15всв22230 0.0 1019223
14:00+18всв23170 0.0 1016379
17:00+15св22240 0.0 101611
20:00+13всв11240 0.0 101611